Time,TemperatureF,DewpointF,PressureIn,WindDirection,WindDirectionDegrees,WindSpeedMPH,WindSpeedGustMPH,Humidity,HourlyPrecipIn,Conditions,Clouds,dailyrainin,SoftwareType,DateUTC
2013-09-06 00:01:00,53.2,44.9,30.17,WNW,299,0.0,3.0,73,0.00,,,0.00,WUHU216DAVISVP2,2013-09-06 04:01:00,
2013-09-06 00:02:00,53.2,44.9,30.17,WNW,299,0.0,3.0,73,0.00,,,0.00,WUHU216DAVISVP2,2013-09-06 04:02:00,
2013-09-06 00:07:00,52.6,44.5,30.17,WNW,299,0.0,3.0,74,0.00,,,0.00,WUHU216DAVISVP2,2013-09-06 04:07:00,
2013-09-06 00:12:00,52.2,44.5,30.17,WNW,299,1.0,1.0,75,0.00,,,0.00,WUHU216DAVISVP2,2013-09-06 04:12:00,
2013-09-06 00:17:00,52.0,44.3,30.18,NW,311,0.0,1.0,75,0.00,,,0.00,WUHU216DAVISVP2,2013-09-06 04:17:00,
2013-09-06 00:22:00,51.9,44.2,30.18,WSW,258,0.0,2.0,75,0.00,,,0.00,WUHU216DAVISVP2,2013-09-06 04:22:00,
2013-09-06 00:27:00,51.8,44.1,30.18,NW,319,0.0,2.0,75,0.00,,,0.00,WUHU216DAVISVP2,2013-09-06 04:27:00,
2013-09-06 00:32:00,51.9,44.3,30.18,North,352,0.0,3.0,75,0.00,,,0.00,WUHU216DAVISVP2,2013-09-06 04:32:00,
2013-09-06 00:37:00,51.8,44.5,30.18,NW,316,0.0,3.0,76,0.00,,,0.00,WUHU216DAVISVP2,2013-09-06 04:37:00,
2013-09-06 00:42:00,51.8,44.2,30.18,NW,319,0.0,3.0,75,0.00,,,0.00,WUHU216DAVISVP2,2013-09-06 04:42:00,
2013-09-06 00:47:00,51.8,43.9,30.18,West,279,0.0,3.0,74,0.00,,,0.00,WUHU216DAVISVP2,2013-09-06 04:47:00,
2013-09-06 00:52:00,51.8,43.5,30.18,NNW,336,1.0,3.0,73,0.00,,,0.00,WUHU216DAVISVP2,2013-09-06 04:52:00,
2013-09-06 00:57:00,51.7,43.8,30.18,NNW,344,2.0,3.0,74,0.00,,,0.00,WUHU216DAVISVP2,2013-09-06 04:57:00,
2013-09-06 01:02:00,51.6,43.7,30.19,North,1,1.0,3.0,74,0.00,,,0.00,WUHU216DAVISVP2,2013-09-06 05:02:00,
2013-09-06 01:07:00,51.5,43.6,30.19,WNW,293,1.0,3.0,74,0.00,,,0.00,WUHU216DAVISVP2,2013-09-06 05:07:00,
2013-09-06 01:12:00,51.4,43.4,30.19,NNE,23,2.0,3.0,74,0.00,,,0.00,WUHU216DAVISVP2,2013-09-06 05:12:00,
2013-09-06 01:17:00,51.3,43.3,30.19,WNW,295,0.0,3.0,74,0.00,,,0.00,WUHU216DAVISVP2,2013-09-06 05:17:00,
2013-09-06 01:22:00,51.2,43.3,30.19,NNW,338,1.0,3.0,74,0.00,,,0.00,WUHU216DAVISVP2,2013-09-06 05:22:00,
2013-09-06 01:27:00,51.2,43.3,30.19,WNW,288,0.0,3.0,74,0.00,,,0.00,WUHU216DAVISVP2,2013-09-06 05:27:00,
2013-09-06 01:32:00,51.1,43.2,30.19,NNW,333,0.0,3.0,74,0.00,,,0.00,WUHU216DAVISVP2,2013-09-06 05:32:00,
2013-09-06 01:37:00,51.2,42.9,30.18,NW,320,1.0,3.0,73,0.00,,,0.00,WUHU216DAVISVP2,2013-09-06 05:37:00,
2013-09-06 01:42:00,51.3,43.0,30.19,North,353,0.0,3.0,73,0.00,,,0.00,WUHU216DAVISVP2,2013-09-06 05:42:00,
2013-09-06 01:47:00,51.2,42.9,30.18,NNE,13,1.0,4.0,73,0.00,,,0.00,WUHU216DAVISVP2,2013-09-06 05:47:00,
2013-09-06 01:52:00,51.3,42.7,30.18,NNE,26,2.0,5.0,72,0.00,,,0.00,WUHU216DAVISVP2,2013-09-06 05:52:00,
2013-09-06 01:57:00,51.3,42.7,30.19,NNW,329,1.0,5.0,72,0.00,,,0.00,WUHU216DAVISVP2,2013-09-06 05:57:00,
2013-09-06 02:02:00,51.3,42.7,30.19,NW,318,0.0,5.0,72,0.00,,,0.00,WUHU216DAVISVP2,2013-09-06 06:02:00,
2013-09-06 02:07:00,51.0,42.7,30.18,North,359,0.0,5.0,73,0.00,,,0.00,WUHU216DAVISVP2,2013-09-06 06:07:00,
2013-09-06 02:12:00,50.8,42.5,30.19,NNW,342,0.0,3.0,73,0.00,,,0.00,WUHU216DAVISVP2,2013-09-06 06:12:00,
2013-09-06 02:17:00,50.7,42.4,30.19,NNE,28,1.0,3.0,73,0.00,,,0.00,WUHU216DAVISVP2,2013-09-06 06:17:00,
2013-09-06 02:22:00,50.7,42.4,30.19,WNW,292,2.0,4.0,73,0.00,,,0.00,WUHU216DAVISVP2,2013-09-06 06:22:00,
2013-09-06 02:27:00,50.7,42.4,30.19,NW,311,0.0,4.0,73,0.00,,,0.00,WUHU216DAVISVP2,2013-09-06 06:27:00,
2013-09-06 02:32:00,50.7,42.4,30.19,North,6,0.0,4.0,73,0.00,,,0.00,WUHU216DAVISVP2,2013-09-06 06:32:00,
2013-09-06 02:37:00,50.8,42.2,30.19,WNW,291,0.0,4.0,72,0.00,,,0.00,WUHU216DAVISVP2,2013-09-06 06:37:00,
2013-09-06 02:42:00,50.7,42.1,30.19,NW,308,0.0,4.0,72,0.00,,,0.00,WUHU216DAVISVP2,2013-09-06 06:42:00,
2013-09-06 02:47:00,50.4,41.8,30.19,WSW,253,0.0,3.0,72,0.00,,,0.00,WUHU216DAVISVP2,2013-09-06 06:47:00,
2013-09-06 02:52:00,50.3,42.1,30.19,West,259,0.0,3.0,73,0.00,,,0.00,WUHU216DAVISVP2,2013-09-06 06:52:00,
2013-09-06 02:57:00,50.2,42.0,30.20,NW,309,0.0,1.0,73,0.00,,,0.00,WUHU216DAVISVP2,2013-09-06 06:57:00,
2013-09-06 03:02:00,50.1,41.8,30.20,NW,319,0.0,1.0,73,0.00,,,0.00,WUHU216DAVISVP2,2013-09-06 07:02:00,
2013-09-06 03:07:00,49.9,41.7,30.20,West,262,0.0,1.0,73,0.00,,,0.00,WUHU216DAVISVP2,2013-09-06 07:07:00,
2013-09-06 03:12:00,49.7,41.5,30.20,West,263,0.0,1.0,73,0.00,,,0.00,WUHU216DAVISVP2,2013-09-06 07:12:00,
2013-09-06 03:17:00,49.6,41.4,30.20,NW,308,1.0,2.0,73,0.00,,,0.00,WUHU216DAVISVP2,2013-09-06 07:17:00,
2013-09-06 03:22:00,49.7,41.5,30.19,North,356,0.0,2.0,73,0.00,,,0.00,WUHU216DAVISVP2,2013-09-06 07:22:00,
2013-09-06 03:27:00,49.6,41.3,30.20,WSW,248,0.0,2.0,73,0.00,,,0.00,WUHU216DAVISVP2,2013-09-06 07:27:00,
2013-09-06 03:32:00,49.6,41.4,30.20,WNW,297,0.0,2.0,73,0.00,,,0.00,WUHU216DAVISVP2,2013-09-06 07:32:00,
2013-09-06 03:37:00,49.7,41.1,30.20,WNW,287,0.0,3.0,72,0.00,,,0.00,WUHU216DAVISVP2,2013-09-06 07:37:00,
2013-09-06 03:42:00,49.7,41.0,30.20,SW,234,0.0,3.0,72,0.00,,,0.00,WUHU216DAVISVP2,2013-09-06 07:42:00,
2013-09-06 03:47:00,49.7,41.1,30.20,WSW,255,0.0,3.0,72,0.00,,,0.00,WUHU216DAVISVP2,2013-09-06 07:47:00,
2013-09-06 03:52:00,49.6,41.3,30.20,WSW,252,0.0,2.0,73,0.00,,,0.00,WUHU216DAVISVP2,2013-09-06 07:52:00,
2013-09-06 03:57:00,49.5,41.3,30.21,West,266,1.0,2.0,73,0.00,,,0.00,WUHU216DAVISVP2,2013-09-06 07:57:00,
2013-09-06 04:02:00,49.5,41.3,30.20,WNW,290,0.0,2.0,73,0.00,,,0.00,WUHU216DAVISVP2,2013-09-06 08:02:00,
2013-09-06 04:07:00,49.5,41.3,30.21,WNW,292,0.0,2.0,73,0.00,,,0.00,WUHU216DAVISVP2,2013-09-06 08:07:00,
2013-09-06 04:12:00,49.5,41.3,30.21,WNW,291,0.0,2.0,73,0.00,,,0.00,WUHU216DAVISVP2,2013-09-06 08:12:00,
2013-09-06 04:17:00,49.5,40.9,30.21,West,281,0.0,3.0,72,0.00,,,0.00,WUHU216DAVISVP2,2013-09-06 08:17:00,
2013-09-06 04:22:00,49.5,40.9,30.21,West,269,0.0,3.0,72,0.00,,,0.00,WUHU216DAVISVP2,2013-09-06 08:22:00,
2013-09-06 04:27:00,49.5,40.9,30.21,NW,311,0.0,3.0,72,0.00,,,0.00,WUHU216DAVISVP2,2013-09-06 08:27:00,
2013-09-06 04:32:00,49.5,40.9,30.21,NNW,344,0.0,3.0,72,0.00,,,0.00,WUHU216DAVISVP2,2013-09-06 08:32:00,
2013-09-06 04:37:00,49.5,40.9,30.22,North,359,2.0,3.0,72,0.00,,,0.00,WUHU216DAVISVP2,2013-09-06 08:37:00,
2013-09-06 04:42:00,49.5,40.9,30.22,NE,41,0.0,3.0,72,0.00,,,0.00,WUHU216DAVISVP2,2013-09-06 08:42:00,
2013-09-06 04:47:00,49.3,40.7,30.22,North,2,1.0,3.0,72,0.00,,,0.00,WUHU216DAVISVP2,2013-09-06 08:47:00,
2013-09-06 04:52:00,49.3,40.7,30.22,North,7,0.0,3.0,72,0.00,,,0.00,WUHU216DAVISVP2,2013-09-06 08:52:00,
2013-09-06 04:57:00,49.3,40.7,30.22,NNW,334,1.0,3.0,72,0.00,,,0.00,WUHU216DAVISVP2,2013-09-06 08:57:00,
2013-09-06 05:02:00,49.3,40.7,30.22,NW,309,0.0,3.0,72,0.00,,,0.00,WUHU216DAVISVP2,2013-09-06 09:02:00,
2013-09-06 05:07:00,49.1,40.9,30.22,NNE,29,0.0,3.0,73,0.00,,,0.00,WUHU216DAVISVP2,2013-09-06 09:07:00,
2013-09-06 05:12:00,48.6,40.4,30.22,NNE,29,0.0,3.0,73,0.00,,,0.00,WUHU216DAVISVP2,2013-09-06 09:12:00,
2013-09-06 05:17:00,48.2,40.7,30.22,NNE,29,0.0,2.0,75,0.00,,,0.00,WUHU216DAVISVP2,2013-09-06 09:17:00,
2013-09-06 05:22:00,47.8,41.0,30.22,NNE,29,0.0,0.0,77,0.00,,,0.00,WUHU216DAVISVP2,2013-09-06 09:22:00,
2013-09-06 05:27:00,47.3,41.2,30.22,NNE,29,0.0,0.0,79,0.00,,,0.00,WUHU216DAVISVP2,2013-09-06 09:27:00,
2013-09-06 05:32:00,46.7,41.2,30.22,NNE,29,0.0,0.0,81,0.00,,,0.00,WUHU216DAVISVP2,2013-09-06 09:32:00,
2013-09-06 05:37:00,46.1,40.9,30.22,NNE,29,0.0,0.0,82,0.00,,,0.00,WUHU216DAVISVP2,2013-09-06 09:37:00,
2013-09-06 05:42:00,45.7,40.8,30.23,NNE,29,0.0,0.0,83,0.00,,,0.00,WUHU216DAVISVP2,2013-09-06 09:42:00,
2013-09-06 05:47:00,45.2,40.9,30.23,NNE,29,0.0,0.0,85,0.00,,,0.00,WUHU216DAVISVP2,2013-09-06 09:47:00,
2013-09-06 05:52:00,44.8,40.8,30.23,NNE,29,0.0,0.0,86,0.00,,,0.00,WUHU216DAVISVP2,2013-09-06 09:52:00,
2013-09-06 05:57:00,44.5,40.6,30.23,NNE,29,0.0,0.0,86,0.00,,,0.00,WUHU216DAVISVP2,2013-09-06 09:57:00,
2013-09-06 06:02:00,44.3,40.7,30.23,NNE,29,0.0,0.0,87,0.00,,,0.00,WUHU216DAVISVP2,2013-09-06 10:02:00,
2013-09-06 06:07:00,44.2,40.3,30.23,NNE,29,0.0,0.0,86,0.00,,,0.00,WUHU216DAVISVP2,2013-09-06 10:07:00,
2013-09-06 06:12:00,44.2,40.8,30.23,NNE,29,0.0,0.0,88,0.00,,,0.00,WUHU216DAVISVP2,2013-09-06 10:12:00,
2013-09-06 06:17:00,44.0,40.6,30.24,NNE,29,0.0,0.0,88,0.00,,,0.00,WUHU216DAVISVP2,2013-09-06 10:17:00,
2013-09-06 06:22:00,43.7,40.3,30.24,NNE,29,0.0,0.0,88,0.00,,,0.00,WUHU216DAVISVP2,2013-09-06 10:22:00,
2013-09-06 06:27:00,43.3,40.3,30.24,NNE,29,0.0,0.0,89,0.00,,,0.00,WUHU216DAVISVP2,2013-09-06 10:27:00,
2013-09-06 06:32:00,43.0,40.5,30.24,NNE,29,0.0,0.0,91,0.00,,,0.00,WUHU216DAVISVP2,2013-09-06 10:32:00,
2013-09-06 06:37:00,43.1,40.4,30.25,NNE,28,0.0,0.0,90,0.00,,,0.00,WUHU216DAVISVP2,2013-09-06 10:37:00,
2013-09-06 06:42:00,43.4,40.6,30.25,NNE,28,0.0,0.0,90,0.00,,,0.00,WUHU216DAVISVP2,2013-09-06 10:42:00,
2013-09-06 06:47:00,43.5,41.0,30.25,NNE,28,0.0,0.0,91,0.00,,,0.00,WUHU216DAVISVP2,2013-09-06 10:47:00,
2013-09-06 06:52:00,43.6,41.1,30.25,NNE,28,0.0,0.0,91,0.00,,,0.00,WUHU216DAVISVP2,2013-09-06 10:52:00,
2013-09-06 06:57:00,43.6,41.1,30.25,NNE,28,0.0,0.0,91,0.00,,,0.00,WUHU216DAVISVP2,2013-09-06 10:57:00,
2013-09-06 07:02:00,43.9,41.1,30.25,NNE,28,0.0,0.0,90,0.00,,,0.00,WUHU216DAVISVP2,2013-09-06 11:02:00,
2013-09-06 07:07:00,44.0,41.3,30.25,NNE,28,0.0,0.0,90,0.00,,,0.00,WUHU216DAVISVP2,2013-09-06 11:07:00,
2013-09-06 07:12:00,44.2,41.4,30.25,NNE,28,0.0,0.0,90,0.00,,,0.00,WUHU216DAVISVP2,2013-09-06 11:12:00,
2013-09-06 07:17:00,44.7,42.2,30.26,NNE,29,0.0,0.0,91,0.00,,,0.00,WUHU216DAVISVP2,2013-09-06 11:17:00,
2013-09-06 07:22:00,45.1,42.0,30.25,NNE,29,0.0,0.0,89,0.00,,,0.00,WUHU216DAVISVP2,2013-09-06 11:22:00,
2013-09-06 07:27:00,46.1,42.7,30.25,NNE,29,0.0,0.0,88,0.00,,,0.00,WUHU216DAVISVP2,2013-09-06 11:27:00,
2013-09-06 07:32:00,47.8,43.2,30.25,NNE,29,0.0,0.0,84,0.00,,,0.00,WUHU216DAVISVP2,2013-09-06 11:32:00,
2013-09-06 07:37:00,49.5,43.3,30.25,NNE,29,0.0,0.0,79,0.00,,,0.00,WUHU216DAVISVP2,2013-09-06 11:37:00,
2013-09-06 07:42:00,50.5,42.6,30.25,North,1,1.0,2.0,74,0.00,,,0.00,WUHU216DAVISVP2,2013-09-06 11:42:00,
2013-09-06 07:47:00,51.1,42.8,30.25,NE,41,3.0,3.0,73,0.00,,,0.00,WUHU216DAVISVP2,2013-09-06 11:47:00,
2013-09-06 07:52:00,51.7,42.7,30.25,WNW,299,1.0,3.0,71,0.00,,,0.00,WUHU216DAVISVP2,2013-09-06 11:52:00,
2013-09-06 07:57:00,52.6,42.5,30.25,NE,48,0.0,4.0,68,0.00,,,0.00,WUHU216DAVISVP2,2013-09-06 11:57:00,
2013-09-06 08:02:00,53.2,42.6,30.25,NW,307,2.0,4.0,67,0.00,,,0.00,WUHU216DAVISVP2,2013-09-06 12:02:00,
2013-09-06 08:07:00,53.6,42.6,30.25,North,349,0.0,4.0,66,0.00,,,0.00,WUHU216DAVISVP2,2013-09-06 12:07:00,
2013-09-06 08:12:00,54.1,42.7,30.25,West,271,1.0,4.0,65,0.00,,,0.00,WUHU216DAVISVP2,2013-09-06 12:12:00,
2013-09-06 08:17:00,54.7,42.9,30.25,NE,44,1.0,6.0,64,0.00,,,0.00,WUHU216DAVISVP2,2013-09-06 12:17:00,
2013-09-06 08:22:00,55.1,42.9,30.25,NE,51,4.0,6.0,63,0.00,,,0.00,WUHU216DAVISVP2,2013-09-06 12:22:00,
2013-09-06 08:27:00,55.5,43.1,30.26,NE,39,1.0,6.0,63,0.00,,,0.00,WUHU216DAVISVP2,2013-09-06 12:27:00,
2013-09-06 08:32:00,55.7,43.4,30.25,South,188,0.0,6.0,63,0.00,,,0.00,WUHU216DAVISVP2,2013-09-06 12:32:00,
2013-09-06 08:37:00,55.9,42.8,30.25,NNE,32,1.0,5.0,61,0.00,,,0.00,WUHU216DAVISVP2,2013-09-06 12:37:00,
2013-09-06 08:42:00,56.1,43.4,30.26,NNE,15,1.0,5.0,62,0.00,,,0.00,WUHU216DAVISVP2,2013-09-06 12:42:00,
2013-09-06 08:47:00,56.3,43.0,30.26,NNE,27,1.0,5.0,61,0.00,,,0.00,WUHU216DAVISVP2,2013-09-06 12:47:00,
2013-09-06 08:52:00,56.1,42.4,30.26,NNE,22,5.0,7.0,60,0.00,,,0.00,WUHU216DAVISVP2,2013-09-06 12:52:00,
2013-09-06 08:57:00,56.1,43.0,30.26,NE,53,1.0,7.0,61,0.00,,,0.00,WUHU216DAVISVP2,2013-09-06 12:57:00,
2013-09-06 09:02:00,56.4,43.5,30.26,ENE,58,2.0,7.0,62,0.00,,,0.00,WUHU216DAVISVP2,2013-09-06 13:02:00,
2013-09-06 09:07:00,56.8,43.2,30.27,NE,39,2.0,7.0,60,0.00,,,0.00,WUHU216DAVISVP2,2013-09-06 13:07:00,
2013-09-06 09:12:00,57.0,43.4,30.27,West,274,5.0,6.0,60,0.00,,,0.00,WUHU216DAVISVP2,2013-09-06 13:12:00,
2013-09-06 09:17:00,57.2,43.4,30.27,North,356,1.0,6.0,60,0.00,,,0.00,WUHU216DAVISVP2,2013-09-06 13:17:00,
2013-09-06 09:22:00,57.5,44.1,30.27,ENE,60,6.0,6.0,61,0.00,,,0.00,WUHU216DAVISVP2,2013-09-06 13:22:00,
2013-09-06 09:27:00,58.0,42.9,30.27,NNE,19,3.0,6.0,57,0.00,,,0.00,WUHU216DAVISVP2,2013-09-06 13:27:00,
2013-09-06 09:32:00,58.2,43.5,30.27,NNE,27,1.0,6.0,58,0.00,,,0.00,WUHU216DAVISVP2,2013-09-06 13:32:00,
2013-09-06 09:37:00,58.5,43.4,30.27,North,351,1.0,6.0,57,0.00,,,0.00,WUHU216DAVISVP2,2013-09-06 13:37:00,
2013-09-06 09:42:00,59.0,43.3,30.27,North,2,2.0,6.0,56,0.00,,,0.00,WUHU216DAVISVP2,2013-09-06 13:42:00,
2013-09-06 09:47:00,59.4,43.2,30.27,WNW,288,2.0,6.0,55,0.00,,,0.00,WUHU216DAVISVP2,2013-09-06 13:47:00,
2013-09-06 09:52:00,59.7,42.6,30.27,SW,235,0.0,5.0,53,0.00,,,0.00,WUHU216DAVISVP2,2013-09-06 13:52:00,
2013-09-06 09:57:00,60.0,43.4,30.27,NE,56,1.0,5.0,54,0.00,,,0.00,WUHU216DAVISVP2,2013-09-06 13:57:00,
2013-09-06 10:02:00,60.2,41.0,30.27,NNE,33,5.0,6.0,49,0.00,,,0.00,WUHU216DAVISVP2,2013-09-06 14:02:00,
2013-09-06 10:07:00,60.6,42.9,30.27,WNW,282,1.0,6.0,52,0.00,,,0.00,WUHU216DAVISVP2,2013-09-06 14:07:00,
2013-09-06 10:12:00,61.1,41.2,30.27,North,358,2.0,6.0,48,0.00,,,0.00,WUHU216DAVISVP2,2013-09-06 14:12:00,
2013-09-06 10:17:00,61.3,42.5,30.27,NW,321,3.0,6.0,50,0.00,,,0.00,WUHU216DAVISVP2,2013-09-06 14:17:00,
2013-09-06 10:22:00,61.4,41.5,30.27,WSW,237,2.0,6.0,48,0.00,,,0.00,WUHU216DAVISVP2,2013-09-06 14:22:00,
2013-09-06 10:27:00,61.8,41.9,30.27,NE,41,3.0,6.0,48,0.00,,,0.00,WUHU216DAVISVP2,2013-09-06 14:27:00,
2013-09-06 10:32:00,62.4,44.6,30.27,SSE,151,0.0,6.0,52,0.00,,,0.00,WUHU216DAVISVP2,2013-09-06 14:32:00,
2013-09-06 10:37:00,62.5,39.7,30.27,NNW,333,2.0,7.0,43,0.00,,,0.00,WUHU216DAVISVP2,2013-09-06 14:37:00,
2013-09-06 10:42:00,62.0,38.5,30.27,WSW,242,1.0,7.0,42,0.00,,,0.00,WUHU216DAVISVP2,2013-09-06 14:42:00,
2013-09-06 10:47:00,62.0,40.3,30.27,SW,235,1.0,7.0,45,0.00,,,0.00,WUHU216DAVISVP2,2013-09-06 14:47:00,
2013-09-06 10:52:00,62.2,39.9,30.27,NW,324,2.0,7.0,44,0.00,,,0.00,WUHU216DAVISVP2,2013-09-06 14:52:00,
2013-09-06 10:57:00,61.8,39.6,30.27,NE,54,3.0,7.0,44,0.00,,,0.00,WUHU216DAVISVP2,2013-09-06 14:57:00,
2013-09-06 11:02:00,62.0,39.8,30.27,NNW,339,2.0,6.0,44,0.00,,,0.00,WUHU216DAVISVP2,2013-09-06 15:02:00,
2013-09-06 11:07:00,62.0,39.1,30.27,NNE,27,2.0,6.0,43,0.00,,,0.00,WUHU216DAVISVP2,2013-09-06 15:07:00,
2013-09-06 11:12:00,62.2,41.1,30.26,NNE,30,3.0,6.0,46,0.00,,,0.00,WUHU216DAVISVP2,2013-09-06 15:12:00,
2013-09-06 11:17:00,62.5,39.0,30.26,WNW,288,5.0,6.0,42,0.00,,,0.00,WUHU216DAVISVP2,2013-09-06 15:17:00,
2013-09-06 11:22:00,62.6,39.7,30.26,SW,233,1.0,6.0,43,0.00,,,0.00,WUHU216DAVISVP2,2013-09-06 15:22:00,
2013-09-06 11:27:00,63.4,39.2,30.26,SSW,203,0.0,6.0,41,0.00,,,0.00,WUHU216DAVISVP2,2013-09-06 15:27:00,
2013-09-06 11:32:00,63.1,38.2,30.26,North,2,3.0,7.0,40,0.00,,,0.00,WUHU216DAVISVP2,2013-09-06 15:32:00,
2013-09-06 11:37:00,63.1,39.6,30.26,North,11,4.0,7.0,42,0.00,,,0.00,WUHU216DAVISVP2,2013-09-06 15:37:00,
2013-09-06 11:42:00,63.4,40.4,30.26,SSW,204,1.0,7.0,43,0.00,,,0.00,WUHU216DAVISVP2,2013-09-06 15:42:00,
2013-09-06 11:47:00,64.1,38.5,30.26,NNW,345,1.0,7.0,39,0.00,,,0.00,WUHU216DAVISVP2,2013-09-06 15:47:00,
2013-09-06 11:52:00,64.4,37.4,30.25,West,262,1.0,6.0,37,0.00,,,0.00,WUHU216DAVISVP2,2013-09-06 15:52:00,
2013-09-06 11:57:00,65.0,41.2,30.25,North,10,3.0,4.0,42,0.00,,,0.00,WUHU216DAVISVP2,2013-09-06 15:57:00,
2013-09-06 12:02:00,65.1,40.7,30.25,NNE,12,1.0,6.0,41,0.00,,,0.00,WUHU216DAVISVP2,2013-09-06 16:02:00,
2013-09-06 12:07:00,64.6,37.7,30.25,NNE,20,3.0,9.0,37,0.00,,,0.00,WUHU216DAVISVP2,2013-09-06 16:07:00,
2013-09-06 12:12:00,64.4,39.4,30.25,ENE,63,3.0,9.0,40,0.00,,,0.00,WUHU216DAVISVP2,2013-09-06 16:12:00,
2013-09-06 12:17:00,64.8,39.1,30.25,SSE,153,0.0,9.0,39,0.00,,,0.00,WUHU216DAVISVP2,2013-09-06 16:17:00,
2013-09-06 12:22:00,65.3,40.2,30.25,NE,49,2.0,9.0,40,0.00,,,0.00,WUHU216DAVISVP2,2013-09-06 16:22:00,
2013-09-06 12:27:00,64.9,39.9,30.24,NE,54,1.0,7.0,40,0.00,,,0.00,WUHU216DAVISVP2,2013-09-06 16:27:00,
2013-09-06 12:32:00,65.2,42.0,30.24,SE,126,0.0,7.0,43,0.00,,,0.00,WUHU216DAVISVP2,2013-09-06 16:32:00,
2013-09-06 12:37:00,65.8,38.6,30.24,SW,233,1.0,7.0,37,0.00,,,0.00,WUHU216DAVISVP2,2013-09-06 16:37:00,
2013-09-06 12:42:00,65.8,41.3,30.24,NE,40,0.0,5.0,41,0.00,,,0.00,WUHU216DAVISVP2,2013-09-06 16:42:00,
2013-09-06 12:47:00,66.0,40.8,30.24,NNW,327,0.0,6.0,40,0.00,,,0.00,WUHU216DAVISVP2,2013-09-06 16:47:00,
2013-09-06 12:52:00,66.1,41.6,30.23,SW,232,0.0,6.0,41,0.00,,,0.00,WUHU216DAVISVP2,2013-09-06 16:52:00,
2013-09-06 12:57:00,66.8,40.9,30.23,NE,51,1.0,6.0,39,0.00,,,0.00,WUHU216DAVISVP2,2013-09-06 16:57:00,
2013-09-06 13:02:00,67.7,41.7,30.23,SW,223,1.0,6.0,39,0.00,,,0.00,WUHU216DAVISVP2,2013-09-06 17:02:00,
2013-09-06 13:07:00,67.9,40.5,30.23,East,91,1.0,5.0,37,0.00,,,0.00,WUHU216DAVISVP2,2013-09-06 17:07:00,
2013-09-06 13:12:00,66.7,40.1,30.23,WSW,248,1.0,6.0,38,0.00,,,0.00,WUHU216DAVISVP2,2013-09-06 17:12:00,
2013-09-06 13:17:00,66.8,40.2,30.23,West,264,1.0,6.0,38,0.00,,,0.00,WUHU216DAVISVP2,2013-09-06 17:17:00,
2013-09-06 13:22:00,66.8,38.8,30.23,NNW,327,0.0,6.0,36,0.00,,,0.00,WUHU216DAVISVP2,2013-09-06 17:22:00,
2013-09-06 13:27:00,66.6,40.0,30.22,East,79,0.0,6.0,38,0.00,,,0.00,WUHU216DAVISVP2,2013-09-06 17:27:00,
2013-09-06 13:32:00,67.1,42.5,30.22,NNW,333,1.0,5.0,41,0.00,,,0.00,WUHU216DAVISVP2,2013-09-06 17:32:00,
2013-09-06 13:37:00,67.3,40.0,30.22,SW,230,1.0,5.0,37,0.00,,,0.00,WUHU216DAVISVP2,2013-09-06 17:37:00,
2013-09-06 13:42:00,67.7,41.0,30.22,NNE,18,3.0,5.0,38,0.00,,,0.00,WUHU216DAVISVP2,2013-09-06 17:42:00,
2013-09-06 13:47:00,67.8,39.0,30.22,East,84,0.0,5.0,35,0.00,,,0.00,WUHU216DAVISVP2,2013-09-06 17:47:00,
2013-09-06 13:52:00,67.9,39.0,30.22,SW,214,0.0,5.0,35,0.00,,,0.00,WUHU216DAVISVP2,2013-09-06 17:52:00,
2013-09-06 13:57:00,68.1,42.1,30.22,West,274,1.0,5.0,39,0.00,,,0.00,WUHU216DAVISVP2,2013-09-06 17:57:00,
2013-09-06 14:02:00,67.7,41.0,30.21,East,100,1.0,4.0,38,0.00,,,0.00,WUHU216DAVISVP2,2013-09-06 18:02:00,
2013-09-06 14:07:00,68.1,43.4,30.21,WSW,243,2.0,4.0,41,0.00,,,0.00,WUHU216DAVISVP2,2013-09-06 18:07:00,
2013-09-06 14:12:00,68.5,41.2,30.21,West,278,2.0,4.0,37,0.00,,,0.00,WUHU216DAVISVP2,2013-09-06 18:12:00,
2013-09-06 14:17:00,68.8,42.7,30.21,ENE,65,1.0,4.0,39,0.00,,,0.00,WUHU216DAVISVP2,2013-09-06 18:17:00,
2013-09-06 14:22:00,69.0,41.5,30.20,ENE,77,2.0,5.0,37,0.00,,,0.00,WUHU216DAVISVP2,2013-09-06 18:22:00,
2013-09-06 14:27:00,68.8,40.7,30.20,NE,37,0.0,5.0,36,0.00,,,0.00,WUHU216DAVISVP2,2013-09-06 18:27:00,
2013-09-06 14:32:00,68.9,42.1,30.20,WSW,240,0.0,5.0,38,0.00,,,0.00,WUHU216DAVISVP2,2013-09-06 18:32:00,
2013-09-06 14:37:00,69.3,40.3,30.20,NE,53,1.0,5.0,35,0.00,,,0.00,WUHU216DAVISVP2,2013-09-06 18:37:00,
2013-09-06 14:42:00,69.5,40.5,30.20,South,189,2.0,4.0,35,0.00,,,0.00,WUHU216DAVISVP2,2013-09-06 18:42:00,
2013-09-06 14:47:00,68.8,40.6,30.20,ENE,58,1.0,6.0,36,0.00,,,0.00,WUHU216DAVISVP2,2013-09-06 18:47:00,
2013-09-06 14:52:00,68.4,42.3,30.19,SSW,213,0.0,6.0,39,0.00,,,0.00,WUHU216DAVISVP2,2013-09-06 18:52:00,
2013-09-06 14:57:00,68.3,40.8,30.19,West,265,2.0,6.0,37,0.00,,,0.00,WUHU216DAVISVP2,2013-09-06 18:57:00,
2013-09-06 15:02:00,68.5,42.4,30.19,NE,42,3.0,6.0,39,0.00,,,0.00,WUHU216DAVISVP2,2013-09-06 19:02:00,
2013-09-06 15:07:00,69.2,43.7,30.18,SW,226,2.0,6.0,40,0.00,,,0.00,WUHU216DAVISVP2,2013-09-06 19:07:00,
2013-09-06 15:13:00,69.6,42.7,30.18,NE,47,2.0,6.0,38,0.00,,,0.00,WUHU216DAVISVP2,2013-09-06 19:13:00,
2013-09-06 15:18:00,69.4,41.8,30.18,North,349,1.0,5.0,37,0.00,,,0.00,WUHU216DAVISVP2,2013-09-06 19:18:00,
2013-09-06 15:23:00,69.4,41.8,30.18,SSW,192,0.0,3.0,37,0.00,,,0.00,WUHU216DAVISVP2,2013-09-06 19:23:00,
2013-09-06 15:28:00,69.5,44.0,30.18,SW,220,1.0,4.0,40,0.00,,,0.00,WUHU216DAVISVP2,2013-09-06 19:28:00,
2013-09-06 15:33:00,69.7,41.4,30.18,WNW,285,3.0,7.0,36,0.00,,,0.00,WUHU216DAVISVP2,2013-09-06 19:33:00,
2013-09-06 15:38:00,69.0,41.5,30.18,ENE,75,0.0,7.0,37,0.00,,,0.00,WUHU216DAVISVP2,2013-09-06 19:38:00,
2013-09-06 15:43:00,69.0,40.0,30.17,NNE,15,2.0,7.0,35,0.00,,,0.00,WUHU216DAVISVP2,2013-09-06 19:43:00,
2013-09-06 15:48:00,69.0,40.8,30.17,ENE,72,0.0,7.0,36,0.00,,,0.00,WUHU216DAVISVP2,2013-09-06 19:48:00,
2013-09-06 15:53:00,69.1,41.7,30.17,WNW,285,0.0,4.0,37,0.00,,,0.00,WUHU216DAVISVP2,2013-09-06 19:53:00,
2013-09-06 15:58:00,68.8,39.8,30.17,NE,40,0.0,4.0,35,0.00,,,0.00,WUHU216DAVISVP2,2013-09-06 19:58:00,
2013-09-06 16:03:00,69.0,40.8,30.17,North,7,0.0,4.0,36,0.00,,,0.00,WUHU216DAVISVP2,2013-09-06 20:03:00,
2013-09-06 16:08:00,69.0,40.8,30.17,North,10,1.0,3.0,36,0.00,,,0.00,WUHU216DAVISVP2,2013-09-06 20:08:00,
2013-09-06 16:13:00,68.9,41.4,30.17,NNW,333,2.0,4.0,37,0.00,,,0.00,WUHU216DAVISVP2,2013-09-06 20:13:00,
2013-09-06 16:17:00,68.5,42.4,30.16,SW,228,0.0,5.0,39,0.00,,,0.00,WUHU216DAVISVP2,2013-09-06 20:17:00,
2013-09-06 16:22:00,68.7,41.2,30.16,North,2,1.0,5.0,37,0.00,,,0.00,WUHU216DAVISVP2,2013-09-06 20:22:00,
2013-09-06 16:27:00,68.8,44.0,30.16,ESE,117,0.0,5.0,41,0.00,,,0.00,WUHU216DAVISVP2,2013-09-06 20:27:00,
2013-09-06 16:32:00,68.7,43.3,30.16,SW,225,1.0,5.0,40,0.00,,,0.00,WUHU216DAVISVP2,2013-09-06 20:32:00,
2013-09-06 16:37:00,68.4,43.7,30.16,WNW,294,2.0,4.0,41,0.00,,,0.00,WUHU216DAVISVP2,2013-09-06 20:37:00,
2013-09-06 16:42:00,68.1,42.7,30.16,SW,233,0.0,4.0,40,0.00,,,0.00,WUHU216DAVISVP2,2013-09-06 20:42:00,
2013-09-06 16:47:00,67.9,43.9,30.15,ENE,73,0.0,4.0,42,0.00,,,0.00,WUHU216DAVISVP2,2013-09-06 20:47:00,
2013-09-06 16:52:00,67.9,43.9,30.16,NNE,26,0.0,4.0,42,0.00,,,0.00,WUHU216DAVISVP2,2013-09-06 20:52:00,
2013-09-06 16:57:00,68.1,44.0,30.16,South,191,0.0,4.0,42,0.00,,,0.00,WUHU216DAVISVP2,2013-09-06 20:57:00,
2013-09-06 17:03:00,68.1,42.7,30.15,SE,146,0.0,4.0,40,0.00,,,0.00,WUHU216DAVISVP2,2013-09-06 21:03:00,
2013-09-06 17:08:00,67.9,43.2,30.16,SE,131,0.0,4.0,41,0.00,,,0.00,WUHU216DAVISVP2,2013-09-06 21:08:00,
2013-09-06 17:13:00,67.4,43.4,30.16,WNW,285,0.0,4.0,42,0.00,,,0.00,WUHU216DAVISVP2,2013-09-06 21:13:00,
2013-09-06 17:18:00,66.9,43.0,30.16,East,94,0.0,1.0,42,0.00,,,0.00,WUHU216DAVISVP2,2013-09-06 21:18:00,
2013-09-06 17:23:00,66.5,43.3,30.15,East,94,0.0,0.0,43,0.00,,,0.00,WUHU216DAVISVP2,2013-09-06 21:23:00,
2013-09-06 17:28:00,66.1,42.2,30.16,North,352,0.0,0.0,42,0.00,,,0.00,WUHU216DAVISVP2,2013-09-06 21:28:00,
2013-09-06 17:33:00,65.9,42.7,30.16,ESE,105,0.0,1.0,43,0.00,,,0.00,WUHU216DAVISVP2,2013-09-06 21:33:00,
2013-09-06 17:38:00,65.6,42.4,30.15,ENE,78,3.0,4.0,43,0.00,,,0.00,WUHU216DAVISVP2,2013-09-06 21:38:00,
2013-09-06 17:43:00,65.3,42.8,30.15,SE,138,1.0,4.0,44,0.00,,,0.00,WUHU216DAVISVP2,2013-09-06 21:43:00,
2013-09-06 17:48:00,65.1,43.2,30.16,SE,127,0.0,4.0,45,0.00,,,0.00,WUHU216DAVISVP2,2013-09-06 21:48:00,
2013-09-06 17:53:00,65.0,42.5,30.16,NNE,32,0.0,4.0,44,0.00,,,0.00,WUHU216DAVISVP2,2013-09-06 21:53:00,
2013-09-06 17:58:00,64.7,43.4,30.16,NNE,33,1.0,3.0,46,0.00,,,0.00,WUHU216DAVISVP2,2013-09-06 21:58:00,
2013-09-06 18:03:00,64.5,42.6,30.16,ENE,68,1.0,3.0,45,0.00,,,0.00,WUHU216DAVISVP2,2013-09-06 22:03:00,
2013-09-06 18:08:00,64.2,42.9,30.16,NE,35,0.0,3.0,46,0.00,,,0.00,WUHU216DAVISVP2,2013-09-06 22:08:00,
2013-09-06 18:13:00,63.8,42.6,30.16,NE,35,0.0,3.0,46,0.00,,,0.00,WUHU216DAVISVP2,2013-09-06 22:13:00,
2013-09-06 18:18:00,63.6,44.1,30.16,ENE,62,0.0,3.0,49,0.00,,,0.00,WUHU216DAVISVP2,2013-09-06 22:18:00,
2013-09-06 18:23:00,63.3,43.3,30.16,ENE,62,0.0,3.0,48,0.00,,,0.00,WUHU216DAVISVP2,2013-09-06 22:23:00,
2013-09-06 18:28:00,63.3,43.3,30.16,ENE,68,0.0,3.0,48,0.00,,,0.00,WUHU216DAVISVP2,2013-09-06 22:28:00,
2013-09-06 18:33:00,63.0,43.0,30.15,ENE,68,0.0,3.0,48,0.00,,,0.00,WUHU216DAVISVP2,2013-09-06 22:33:00,
2013-09-06 18:38:00,62.6,43.7,30.15,ENE,67,0.0,3.0,50,0.00,,,0.00,WUHU216DAVISVP2,2013-09-06 22:38:00,
2013-09-06 18:43:00,62.2,43.9,30.15,ENE,67,0.0,3.0,51,0.00,,,0.00,WUHU216DAVISVP2,2013-09-06 22:43:00,
2013-09-06 18:48:00,61.8,44.0,30.15,ENE,67,0.0,0.0,52,0.00,,,0.00,WUHU216DAVISVP2,2013-09-06 22:48:00,
2013-09-06 18:53:00,61.4,44.2,30.15,ENE,67,0.0,0.0,53,0.00,,,0.00,WUHU216DAVISVP2,2013-09-06 22:53:00,
2013-09-06 18:58:00,61.1,44.8,30.15,ENE,67,0.0,0.0,55,0.00,,,0.00,WUHU216DAVISVP2,2013-09-06 22:58:00,
2013-09-06 19:03:00,60.6,44.4,30.15,ENE,67,0.0,0.0,55,0.00,,,0.00,WUHU216DAVISVP2,2013-09-06 23:03:00,
2013-09-06 19:08:00,60.1,44.0,30.15,ENE,68,0.0,0.0,55,0.00,,,0.00,WUHU216DAVISVP2,2013-09-06 23:08:00,
2013-09-06 19:13:00,59.4,44.7,30.15,ENE,67,0.0,0.0,58,0.00,,,0.00,WUHU216DAVISVP2,2013-09-06 23:13:00,
2013-09-06 19:18:00,59.0,44.3,30.15,ENE,67,0.0,0.0,58,0.00,,,0.00,WUHU216DAVISVP2,2013-09-06 23:18:00,
2013-09-06 19:23:00,58.7,44.5,30.15,ENE,67,0.0,0.0,59,0.00,,,0.00,WUHU216DAVISVP2,2013-09-06 23:23:00,
2013-09-06 19:28:00,58.5,44.3,30.15,ENE,67,0.0,0.0,59,0.00,,,0.00,WUHU216DAVISVP2,2013-09-06 23:28:00,
2013-09-06 19:33:00,58.2,44.5,30.15,ENE,67,0.0,0.0,60,0.00,,,0.00,WUHU216DAVISVP2,2013-09-06 23:33:00,
2013-09-06 19:38:00,58.0,44.8,30.15,ENE,67,0.0,0.0,61,0.00,,,0.00,WUHU216DAVISVP2,2013-09-06 23:38:00,
2013-09-06 19:43:00,57.6,44.4,30.15,ENE,67,0.0,0.0,61,0.00,,,0.00,WUHU216DAVISVP2,2013-09-06 23:43:00,
2013-09-06 19:48:00,57.2,44.8,30.15,ENE,67,0.0,0.0,63,0.00,,,0.00,WUHU216DAVISVP2,2013-09-06 23:48:00,
2013-09-06 19:53:00,56.6,44.7,30.15,ENE,67,0.0,0.0,64,0.00,,,0.00,WUHU216DAVISVP2,2013-09-06 23:53:00,
2013-09-06 19:58:00,56.0,45.3,30.15,ENE,67,0.0,0.0,67,0.00,,,0.00,WUHU216DAVISVP2,2013-09-06 23:58:00,
2013-09-06 20:03:00,55.4,45.1,30.15,ENE,67,0.0,0.0,68,0.00,,,0.00,WUHU216DAVISVP2,2013-09-07 00:03:00,
2013-09-06 20:08:00,55.0,45.5,30.15,ENE,67,0.0,0.0,70,0.00,,,0.00,WUHU216DAVISVP2,2013-09-07 00:08:00,
2013-09-06 20:13:00,54.9,45.8,30.15,ENE,67,0.0,0.0,71,0.00,,,0.00,WUHU216DAVISVP2,2013-09-07 00:13:00,
2013-09-06 20:18:00,54.8,45.3,30.15,ENE,67,0.0,0.0,70,0.00,,,0.00,WUHU216DAVISVP2,2013-09-07 00:18:00,
2013-09-06 20:23:00,54.7,44.8,30.15,ENE,67,0.0,0.0,69,0.00,,,0.00,WUHU216DAVISVP2,2013-09-07 00:23:00,
2013-09-06 20:28:00,54.7,44.8,30.15,ENE,67,0.0,0.0,69,0.00,,,0.00,WUHU216DAVISVP2,2013-09-07 00:28:00,
2013-09-06 20:33:00,54.5,45.0,30.15,ENE,67,0.0,0.0,70,0.00,,,0.00,WUHU216DAVISVP2,2013-09-07 00:33:00,
2013-09-06 20:38:00,54.1,44.6,30.15,ENE,67,0.0,0.0,70,0.00,,,0.00,WUHU216DAVISVP2,2013-09-07 00:38:00,
2013-09-06 20:43:00,54.0,45.3,30.15,ENE,67,0.0,0.0,72,0.00,,,0.00,WUHU216DAVISVP2,2013-09-07 00:43:00,
2013-09-06 20:48:00,53.9,44.8,30.15,ENE,67,0.0,0.0,71,0.00,,,0.00,WUHU216DAVISVP2,2013-09-07 00:48:00,
2013-09-06 20:53:00,53.9,45.2,30.15,ENE,67,0.0,0.0,72,0.00,,,0.00,WUHU216DAVISVP2,2013-09-07 00:53:00,
2013-09-06 20:58:00,53.8,45.4,30.15,ENE,67,0.0,0.0,73,0.00,,,0.00,WUHU216DAVISVP2,2013-09-07 00:58:00,
2013-09-06 21:03:00,53.4,45.3,30.15,ENE,67,0.0,0.0,74,0.00,,,0.00,WUHU216DAVISVP2,2013-09-07 01:03:00,
2013-09-06 21:08:00,53.3,45.3,30.15,ENE,68,0.0,0.0,74,0.00,,,0.00,WUHU216DAVISVP2,2013-09-07 01:08:00,
2013-09-06 21:13:00,53.2,45.2,30.15,ENE,67,0.0,0.0,74,0.00,,,0.00,WUHU216DAVISVP2,2013-09-07 01:13:00,
2013-09-06 21:18:00,53.2,45.6,30.15,ENE,67,0.0,0.0,75,0.00,,,0.00,WUHU216DAVISVP2,2013-09-07 01:18:00,
2013-09-06 21:23:00,53.3,45.7,30.15,ENE,67,0.0,0.0,75,0.00,,,0.00,WUHU216DAVISVP2,2013-09-07 01:23:00,
2013-09-06 21:28:00,53.2,45.9,30.15,ENE,67,0.0,0.0,76,0.00,,,0.00,WUHU216DAVISVP2,2013-09-07 01:28:00,
2013-09-06 21:33:00,53.0,46.0,30.15,ENE,67,0.0,0.0,77,0.00,,,0.00,WUHU216DAVISVP2,2013-09-07 01:33:00,
2013-09-06 21:38:00,52.6,45.6,30.15,ENE,67,0.0,0.0,77,0.00,,,0.00,WUHU216DAVISVP2,2013-09-07 01:38:00,
2013-09-06 21:43:00,52.2,45.5,30.14,ENE,67,0.0,0.0,78,0.00,,,0.00,WUHU216DAVISVP2,2013-09-07 01:43:00,
2013-09-06 21:48:00,52.1,45.8,30.14,ENE,67,0.0,0.0,79,0.00,,,0.00,WUHU216DAVISVP2,2013-09-07 01:48:00,
2013-09-06 21:53:00,51.9,46.0,30.15,ENE,67,0.0,0.0,80,0.00,,,0.00,WUHU216DAVISVP2,2013-09-07 01:53:00,
2013-09-06 21:58:00,51.6,45.6,30.14,ENE,67,0.0,0.0,80,0.00,,,0.00,WUHU216DAVISVP2,2013-09-07 01:58:00,
2013-09-06 22:03:00,51.5,45.9,30.15,ENE,67,0.0,0.0,81,0.00,,,0.00,WUHU216DAVISVP2,2013-09-07 02:03:00,
2013-09-06 22:08:00,51.4,45.8,30.14,ENE,67,0.0,0.0,81,0.00,,,0.00,WUHU216DAVISVP2,2013-09-07 02:08:00,
2013-09-06 22:13:00,51.3,45.7,30.14,ENE,68,0.0,0.0,81,0.00,,,0.00,WUHU216DAVISVP2,2013-09-07 02:13:00,
2013-09-06 22:18:00,51.6,46.3,30.14,ENE,68,0.0,0.0,82,0.00,,,0.00,WUHU216DAVISVP2,2013-09-07 02:18:00,
2013-09-06 22:23:00,51.7,46.1,30.14,ENE,68,0.0,0.0,81,0.00,,,0.00,WUHU216DAVISVP2,2013-09-07 02:23:00,
2013-09-06 22:28:00,51.4,45.8,30.14,ENE,67,0.0,0.0,81,0.00,,,0.00,WUHU216DAVISVP2,2013-09-07 02:28:00,
2013-09-06 22:33:00,51.2,46.2,30.14,ENE,68,0.0,0.0,83,0.00,,,0.00,WUHU216DAVISVP2,2013-09-07 02:33:00,
2013-09-06 22:38:00,51.0,46.0,30.14,ENE,67,0.0,0.0,83,0.00,,,0.00,WUHU216DAVISVP2,2013-09-07 02:38:00,
2013-09-06 22:43:00,51.3,46.0,30.14,ENE,67,0.0,0.0,82,0.00,,,0.00,WUHU216DAVISVP2,2013-09-07 02:43:00,
2013-09-06 22:48:00,51.1,46.1,30.14,ENE,67,0.0,0.0,83,0.00,,,0.00,WUHU216DAVISVP2,2013-09-07 02:48:00,
2013-09-06 22:53:00,51.0,46.0,30.14,ENE,67,0.0,0.0,83,0.00,,,0.00,WUHU216DAVISVP2,2013-09-07 02:53:00,
2013-09-06 22:58:00,50.8,46.1,30.14,ENE,67,0.0,0.0,84,0.00,,,0.00,WUHU216DAVISVP2,2013-09-07 02:58:00,
2013-09-06 23:03:00,50.5,45.8,30.14,ENE,67,0.0,0.0,84,0.00,,,0.00,WUHU216DAVISVP2,2013-09-07 03:03:00,
2013-09-06 23:08:00,50.3,46.0,30.13,ENE,67,0.0,0.0,85,0.00,,,0.00,WUHU216DAVISVP2,2013-09-07 03:08:00,
2013-09-06 23:13:00,50.1,46.1,30.13,ENE,67,0.0,0.0,86,0.00,,,0.00,WUHU216DAVISVP2,2013-09-07 03:13:00,
2013-09-06 23:18:00,49.9,45.9,30.13,ENE,67,0.0,0.0,86,0.00,,,0.00,WUHU216DAVISVP2,2013-09-07 03:18:00,
2013-09-06 23:23:00,49.9,45.9,30.13,ENE,67,0.0,0.0,86,0.00,,,0.00,WUHU216DAVISVP2,2013-09-07 03:23:00,
2013-09-06 23:28:00,49.8,46.1,30.12,ENE,67,0.0,0.0,87,0.00,,,0.00,WUHU216DAVISVP2,2013-09-07 03:28:00,
2013-09-06 23:33:00,50.1,46.4,30.13,ENE,67,0.0,0.0,87,0.00,,,0.00,WUHU216DAVISVP2,2013-09-07 03:33:00,
2013-09-06 23:38:00,50.4,46.4,30.13,ENE,67,0.0,0.0,86,0.00,,,0.00,WUHU216DAVISVP2,2013-09-07 03:38:00,
2013-09-06 23:43:00,50.3,46.3,30.13,ENE,67,0.0,0.0,86,0.00,,,0.00,WUHU216DAVISVP2,2013-09-07 03:43:00,
2013-09-06 23:48:00,50.5,46.5,30.13,ENE,67,0.0,0.0,86,0.00,,,0.00,WUHU216DAVISVP2,2013-09-07 03:48:00,
2013-09-06 23:53:00,50.5,46.5,30.12,ENE,67,0.0,0.0,86,0.00,,,0.00,WUHU216DAVISVP2,2013-09-07 03:53:00,
2013-09-06 23:58:00,50.7,46.7,30.12,ENE,67,0.0,0.0,86,0.00,,,0.00,WUHU216DAVISVP2,2013-09-07 03:58:00,